Regional Weather Roundup
Issued by NWS Mt. Holly, NJ

Home | Current Version | Previous Version | Text Only | Print | Product List | Glossary On
Versions: 1 2 3 4 5 6 7 8 9 10 11 12 13 14 15 16 17 18 19 20 21 22 23 24 25 26 27
000
ASUS41 KPHI 270212
RWRPHI

REGIONAL WEATHER ROUNDUP
NATIONAL WEATHER SERVICE MOUNT HOLLY NJ
1000 PM EDT MON SEP 26 2016

NOTE:  "FAIR" INDICATES FEW OR NO CLOUDS BELOW 12,000 FEET WITH NO
SIGNIFICANT WEATHER AND/OR OBSTRUCTIONS TO VISIBILITY.

 * = STATION DOES NOT REPORT PRECIPITATION (E.G. RAIN, SNOW, ETC.)
        OR FOG.

NJZ015>026-270300-
SOUTHERN NEW JERSEY

CITY           SKY/WX    TMP DP  RH WIND       PRES   REMARKS
POMONA         CLOUDY    71  61  70 S10       30.04F
WILDWOOD*        N/A     71  64  78 S7        30.05F
MILLVILLE      CLOUDY    69  62  78 CALM      30.04F
WRIGHTSTOWN    CLOUDY    66  57  74 E1        30.02S
MOUNT HOLLY    CLOUDY    66  56  70 CALM      30.04S
TRENTON        CLOUDY    66  55  67 S10       30.03F

$$
NJZ001>014-270300-
NORTHERN NEW JERSEY

CITY           SKY/WX    TMP DP  RH WIND       PRES   REMARKS
SUSSEX         CLOUDY    65  50  58 S3        30.02F
ANDOVER*         N/A     64  50  60 VRB5      30.03F
MORRISTOWN     CLOUDY    66  54  63 SW12      30.05F
NEWARK         CLOUDY    68  55  63 S9        30.05F
TETERBORO      CLOUDY    68  53  58 S10       30.04S
CALDWELL       CLOUDY    67  52  58 SW5       30.05F
SOMERVILLE     CLOUDY    66  53  63 CALM      30.02F
ALLAIRE*       CLOUDY    68  59  73 S6        30.06F

$$
PAZ043-044-047-054-055-060>062-066>071-270300-
EASTERN PENNSYLVANIA

CITY           SKY/WX    TMP DP  RH WIND       PRES   REMARKS
PHILADELPHIA   CLOUDY    69  58  67 S7        30.03F
NORTH PHILA    CLOUDY    68  58  70 SE7       30.04F
BLUE BELL*     CLOUDY    64  55  72 S6        30.03S
DOYLESTOWN     CLOUDY    66  56  70 S3        30.03F
QUAKERTOWN*    CLOUDY    64  54  68 SE7       30.03F
PERKASIE*      CLOUDY    64  54  68 CALM      30.04F
POTTSTOWN      CLOUDY    65  56  72 CALM      30.03F
LANCASTER      CLOUDY    67  58  72 SE7       29.98F
COATESVILLE    CLOUDY    64  55  72 SE6       30.02F
READING        CLOUDY    66  53  63 SE6       29.99F
ALLENTOWN      CLOUDY    67  51  56 CALM      30.02F
MOUNT POCONO   CLOUDY    58  49  72 S8        30.03F
HAZLETON       RAIN      59  54  82 SE7       30.03F
LEHIGHTON      CLOUDY    61  55  82 CALM      30.02F
WILKES BARRE   CLOUDY    63  53  70 S9        29.98F

$$
DEZALL-MDZ008-012-015-019-020-270300-
DELAWARE AND EASTERN MARYLAND

CITY           SKY/WX    TMP DP  RH WIND       PRES   REMARKS
WILMINGTON     CLOUDY    69  56  62 S10       30.03F
DOVER          CLOUDY    68  64  86 S8        30.02F
GEORGETOWN     CLOUDY    68  61  78 CALM      30.05F
EASTON         CLOUDY    68  57  68 S7        30.07F
PATUXENT       CLOUDY    70  60  70 S5        30.03F
OCEAN CITY     CLOUDY    74  66  76 S6        30.04F
WALLOPS ISLAND CLOUDY    74  69  85 S13       30.04F
CAMBRIDGE      CLOUDY    64  61  88 CALM      30.04S
SALISBURY      CLOUDY    67  63  87 CALM      30.04F

$$
PAZ001-021-NYZ056-072-MDZ011-DCZ001-270300-
OTHER NEARBY LOCATIONS

CITY           SKY/WX    TMP DP  RH WIND       PRES   REMARKS
HARRISBURG     CLOUDY    66  59  78 S5        29.97F
STATE COLLEGE  DRIZZLE   61  60  97 SW3       29.97F
WILLIAMSPORT   LGT RAIN  63  61  93 VRB5      29.95F
BINGHAMTON     CLOUDY    58  51  78 S7G17     29.96F
NEW YORK CITY  CLOUDY    67  54  63 VRB5      30.07F
BALTIMORE      CLOUDY    65  59  81 SE7       29.99F
WASHINGTON DC  LGT RAIN  67  63  87 S12       30.00F

$$




USA.gov is the U.S. government's official web portal to all federal, state and local government web resources and services.